Regional Weather Roundup
Issued by NWS Little Rock, AR

Home | Current Version | Previous Version | Text Only | Print | Product List | Glossary Off
Versions: 1 2 3 4 5 6 7 8 9 10 11 12 13 14 15 16 17 18 19 20 21 22 23 24 25 26 27 28 29 30 31 32 33 34 35 36 37 38 39 40 41 42 43 44 45 46 47 48 49

000
ASUS44 KLZK 282105
RWRLZK

WEATHER ROUNDUP FOR ARKANSAS
NATIONAL WEATHER SERVICE LITTLE ROCK AR
400 PM CDT FRI AUG 28 2015

NOTE: "FAIR" INDICATES FEW OR NO CLOUDS BELOW 12,000 FEET WITH NO
SIGNIFICANT WEATHER AND/OR OBSTRUCTIONS TO VISIBILITY.

ARZ001-003-010-029-282200-
NORTHWEST ARKANSAS

CITY           SKY/WX    TMP DP  RH WIND       PRES   REMARKS
FAYETTEVILLE   PTSUNNY   80  65  59 S13       30.01F
FORT SMITH     MOSUNNY   86  61  42 SE9       29.97F HX  86
BENTONVILLE    CLOUDY    81  63  54 S9        30.02F
ROGERS         CLOUDY    80  65  59 SE12      30.02F
SILOAM SPGS    PTSUNNY   82  64  54 S10       29.99S
HIGHFILL       CLOUDY    81  66  60 SE12      30.00F
SPRINGDALE     MOSUNNY   81  64  57 SE7       30.02F
$$

ARZ004-005-016-282200-
NORTH CENTRAL ARKANSAS

CITY           SKY/WX    TMP DP  RH WIND       PRES   REMARKS
BATESVILLE     SUNNY     84  63  48 SE8       30.02F HX  85
FLIPPIN        MOSUNNY   84  57  39 S5        30.00F
MTN HOME       MOSUNNY   81  61  50 SE6       30.02F
$$

ARZ040-041-282200-
WEST CENTRAL ARKANSAS

CITY           SKY/WX    TMP DP  RH WIND       PRES   REMARKS
MENA           SUNNY     86  63  45 E5        30.01F HX  87
MOUNT IDA      MOSUNNY   85  60  42 MISG      29.99F HX  85
$$

ARZ009-017-025-026-028-282200-
NORTHEAST ARKANSAS

CITY           SKY/WX    TMP DP  RH WIND       PRES   REMARKS
JONESBORO      MOSUNNY   84  65  52 S8        30.02F HX  86
NEWPORT        MOSUNNY   85  63  47 VRB5      30.03F HX  86
WALNUT RIDGE   SUNNY     82  59  44 S6        30.02F
BLYTHEVILLE    FAIR      87  66  49 S6        30.02F HX  89
$$

ARZ022-023-033-042-044-282200-
CENTRAL ARKANSAS

CITY           SKY/WX    TMP DP  RH WIND       PRES   REMARKS
LITTLE ROCK    MOSUNNY   86  57  37 VRB3      30.01F HX  85
N LITTLE ROCK  MOSUNNY   85  59  41 SE3       30.01F
JACKSONVILLE   MOSUNNY   86  58  37 VRB7      30.00F HX  85
SEARCY         SUNNY     87  62  43 E10       30.03F HX  87
HOT SPRINGS    SUNNY     86  59  39 SW7       30.00F HX  85
RUSSELLVILLE   MOSUNNY   83  63  50 CALM      30.00F
$$

ARZ036-282200-
EAST ARKANSAS

CITY           SKY/WX    TMP DP  RH WIND       PRES   REMARKS
WEST MEMPHIS   MOSUNNY   87  64  46 SW6       30.00F HX  88
$$

ARZ050-053-066-070-073-282200-
SOUTHWEST ARKANSAS

CITY           SKY/WX    TMP DP  RH WIND       PRES   REMARKS
ARKADELPHIA    FAIR      88  61  40 CALM      30.00F HX  88
CAMDEN         SUNNY     86  59  39 CALM      29.99F HX  85
TEXARKANA      SUNNY     88  58  36 VRB3      29.98F HX  87
EL DORADO      SUNNY     89  59  36 N7        29.99F HX  88
DE QUEEN       SUNNY     87  62  43 E7        29.97F HX  87
$$

ARZ056-057-069-282200-
SOUTHEAST ARKANSAS

CITY           SKY/WX    TMP DP  RH WIND       PRES   REMARKS
PINE BLUFF     SUNNY     84  59  42 SW3       30.00F
STUTTGART      SUNNY     86  61  42 SE6       30.01F HX  86
MONTICELLO     SUNNY     88  58  36 MISG      29.99F HX  87

$$





USA.gov is the U.S. government's official web portal to all federal, state and local government web resources and services.